Voltar ao catálogo

DELTA 1 DEB

AtivoPO
NORAD 21448·DEBRIS·🇺🇸 United States

Lançado Jun 12, 1975 de Vandenberg Space Force Base

Loading…

Próximas Passagens (próximas 24 horas)

TLE

AtualizadoSource: Space-Track

Época: Sep 14, 2026, 14:24 UTC

1 21448U 75052EG  26257.60062726 -.00000015  00000-0  62565-4 0  9994
2 21448  99.6477 303.3000 0129112 317.6678 209.8596 13.18254381701313

Acompanhe DELTA 1 DEB em tempo real com AllMySat

Download on the App Store